[[{"header":{"parameterUnit":"m.s-1","parameterCategory":1,"la1":30.2991,"la2":30.254,"lo1":-89.0895,"lo2":-89.0444,"dy":0.0017,"dx":0.0017,"nx":28,"ny":28,"refTime":"2025-06-01T21:00:00:Z","depth":0,"parameterNumber":2,"parameterNumberName":"U-component_of_WINDS"},"data":[0,0,0,0,0,0,0,0,0,0,0,0,0,0,0,0,0,0,0,0,0,0,0,0,0,0,0,0,0,0,0,0,0,0,0,0,0,0,0,0,0,0,0,0,0,0,0,0,0,0,0,0,0,0,0,0,0,0,2.9011,2.9011,0,2.9007,2.9007,2.9007,2.8942,2.894,2.8939,2.8937,2.8933,2.8934,2.8935,0,0,0,0,0,0,0,0,0,0,0,0,0,2.896,2.8962,2.9011,2.9011,2.9011,2.9007,2.9007,2.9007,2.8942,2.894,2.8938,2.8936,2.8932,2.8934,2.8936,0,0,0,0,0,0,0,0,0,0,0,0,0,2.8972,2.8962,2.9011,2.8979,2.8976,2.9007,2.9007,2.9007,2.8943,2.894,2.8938,2.8935,2.8932,2.8934,2.8936,2.8999,0,0,2.8942,2.8943,0,0,0,0,0,0,0,0,2.8971,2.8974,2.8983,2.8981,2.8978,2.8973,2.8988,2.9005,2.8943,2.8955,2.8937,2.8934,2.8948,2.8949,2.8953,2.8999,2.8998,2.8943,2.8944,2.8945,2.8945,0,0,0,0,0,0,0,2.8971,2.8974,2.901,2.8984,2.898,2.8963,2.8962,2.899,2.8966,2.8954,2.8949,2.895,2.8946,2.8951,2.8953,2.8998,2.8942,2.8944,2.8946,2.8947,2.909,2.9093,0,0,0,0,0,0,2.8975,2.8974,2.901,2.901,2.8968,2.8966,2.8965,2.8977,2.8965,2.8961,2.8952,2.8947,2.8949,2.895,2.8952,2.9021,2.8945,2.8947,2.8948,2.9088,2.9091,2.9094,0,0,0,0,0,0,2.8974,2.8979,2.901,2.899,2.8993,2.897,2.8984,2.8978,2.8983,2.8963,2.8959,2.8962,2.8947,2.8949,2.8987,2.9021,2.8948,2.895,2.9085,2.9089,2.9092,2.9163,0,0,0,0,0,0,2.8973,2.8979,2.9003,2.8991,2.8994,2.9046,2.8986,2.898,2.8987,2.8981,2.8972,2.8968,2.8945,2.8984,2.8989,2.9022,2.8951,2.9082,2.9087,2.9091,2.9158,2.9169,2.9179,0,0,0,0,0,2.8971,2.9024,2.9005,2.901,2.9025,2.9048,2.9049,2.9022,2.8991,2.9014,2.9001,2.8968,2.9017,2.8988,2.8993,2.9028,2.9079,2.9085,2.9091,2.9153,2.9167,2.9178,0,0,0,0,0,0,2.9042,2.9022,2.9,2.9052,2.9052,2.9037,2.9066,2.9038,2.9048,2.9041,2.9007,2.9005,2.9047,2.9042,2.901,2.9086,2.9042,2.9049,2.9088,2.9101,2.9111,2.911,2.8953,0,0,0,0,0,2.9063,2.9084,2.9066,2.9113,2.9114,2.909,2.9099,2.9078,2.9077,2.9076,2.9066,2.9066,2.908,2.9091,2.9103,2.9157,2.9152,2.9183,2.9194,2.9203,2.9208,2.9232,2.9244,2.9113,2.9112,2.9112,0,0,2.9108,2.91,2.9115,2.9126,2.9124,2.9145,2.909,2.9116,2.913,2.908,2.9114,2.9106,2.9103,2.9148,2.9167,2.9145,2.9244,2.921,2.9217,2.9218,2.9239,2.9252,2.9263,2.9116,2.9116,2.9115,0,0,2.9198,2.9196,2.9232,2.9231,2.9227,2.9211,2.922,2.9208,2.9201,2.9234,2.9195,2.9212,2.924,2.9238,2.924,2.9328,2.9297,2.9333,2.9387,2.941,2.9421,2.9429,2.9457,2.9467,2.9339,2.9339,2.934,0,2.9254,2.9284,2.9255,2.9281,2.9286,2.9241,2.9276,2.9276,2.9278,2.9281,2.9256,2.9286,2.9282,2.9323,2.9344,2.935,2.9356,2.9333,2.9422,2.943,2.9438,2.9464,2.9475,2.9344,2.9343,2.9343,2.9342,0,2.935,2.9372,2.9402,2.9402,2.941,2.9442,2.9415,2.9428,2.9405,2.9391,2.9423,2.9416,2.9424,2.9434,2.9413,2.9471,2.9457,2.9428,2.9382,2.9455,2.9478,2.9488,2.9349,2.9348,2.9347,2.9346,0,0,2.9485,2.9467,2.9478,2.9476,2.9468,2.9484,2.9512,2.9519,2.9528,2.9531,2.9551,2.9574,2.9546,2.9549,2.9528,2.9549,2.9613,2.9516,2.9515,2.9531,2.9673,2.9692,2.9704,2.9594,2.9596,2.9597,2.9671,0,2.9569,2.9615,2.9588,2.9638,2.9655,2.9612,2.9636,2.9633,2.962,2.9632,2.9618,2.9632,2.9596,2.9597,2.9617,2.9602,2.9641,2.9596,2.961,2.9611,2.9609,2.9717,2.9738,2.9809,2.9681,2.9682,2.9684,0,2.9674,2.9678,2.9729,2.9714,2.972,2.9742,2.9745,2.9758,2.9753,2.9741,2.9744,2.9716,2.9741,2.9698,2.973,2.97,2.9704,2.9698,2.97,2.9697,2.9649,2.9714,2.9831,2.984,2.9698,2.9697,2.9696,0,2.9761,2.9781,2.9812,2.9813,2.9797,2.9813,2.9807,2.9799,2.9804,2.9807,2.981,2.9816,2.9819,2.9824,2.9798,2.977,2.9831,2.9787,2.982,2.9821,2.9833,2.9832,2.9948,2.9842,2.9842,2.9841,2.9841,0,2.9856,2.9888,2.9851,2.987,2.9903,2.9872,2.9906,2.9896,2.9889,2.9904,2.9868,2.9883,2.985,2.9861,2.9841,2.9868,2.9871,2.986,2.9854,2.9861,2.9862,2.9861,2.9854,2.9844,2.9844,2.9843,2.9843,0,2.9959,2.9936,2.9967,2.9949,2.9945,2.997,2.9954,2.997,2.9954,2.9974,2.9977,2.9952,2.9962,2.9938,2.9946,2.9932,2.9969,2.9957,2.9971,2.9966,2.9998,2.9994,3.0116,3.0128,3.0017,3.0018,3.0019,0,3.0019,3.0042,3.0026,3.0033,3.0029,3.0041,3.0046,3.0016,3.0021,3.0015,3.0032,3.0039,3.0043,3.0063,3.0045,3.005,3.0035,3.0077,3.0035,3.0041,3.0031,3.0028,3.0029,3.0085,3.0086,3.0087,3.0088,0,3.0127,3.0113,3.0121,3.0124,3.013,3.0131,3.013,3.0138,3.0105,3.0113,3.0123,3.0127,3.0133,3.014,3.0141,3.0134,3.0105,3.0102,3.0109,3.0115,3.012,3.0114,2.999,3.0099,3.0098,3.0097,3.0096,3.0096,3.0207,3.0224,3.0214,3.0223,3.0218,3.0217,3.023,3.0215,3.0223,3.0225,3.0207,3.022,3.0212,3.0209,3.0205,3.0214,3.0194,3.0206,3.0208,3.021,3.0214,3.0122,3.0214,3.0214,3.0214,3.0213,3.0213,0,3.0309,3.03,3.0309,3.0307,3.0313,3.0286,3.0282,3.0288,3.03,3.0295,3.0299,3.0309,3.0315,3.0297,3.03,3.031,3.0297,3.0312,3.0309,3.0307,3.0233,3.0225,3.0322,3.0322,3.0322,3.0322,3.0322,3.0322,3.0363,3.0388,3.0374,3.0396,3.0386,3.0398,3.0398,3.0396,3.039,3.0403,3.0407,3.0396,3.0384,3.0386,3.0389,3.0384,3.0385,3.0404,3.0393,3.0324,3.0313,3.0303,3.0294,3.0405,3.0405,3.0466,3.0466,3.0467]},{"header":{"parameterUnit":"m.s-1","parameterCategory":1,"la1":30.2991,"la2":30.254,"lo1":-89.0895,"lo2":-89.0444,"dy":0.0017,"dx":0.0017,"nx":28,"ny":28,"refTime":"2025-06-01T21:00:00:Z","depth":0,"parameterNumber":3,"parameterNumberName":"V-component_of_WINDS"},"data":[0,0,0,0,0,0,0,0,0,0,0,0,0,0,0,0,0,0,0,0,0,0,0,0,0,0,0,0,0,0,0,0,0,0,0,0,0,0,0,0,0,0,0,0,0,0,0,0,0,0,0,0,0,0,0,0,0,0,3.6896,3.6898,0,3.7053,3.7055,3.7056,3.7061,3.7059,3.7057,3.7056,3.7212,3.7218,3.7224,0,0,0,0,0,0,0,0,0,0,0,0,0,3.6597,3.6603,3.6896,3.6898,3.69,3.7053,3.7055,3.7057,3.7062,3.7059,3.7057,3.7055,3.721,3.7217,3.7224,0,0,0,0,0,0,0,0,0,0,0,0,0,3.6738,3.6604,3.6896,3.6921,3.6925,3.7052,3.7055,3.7057,3.7062,3.7059,3.7056,3.7054,3.7208,3.7216,3.7225,3.7337,0,0,3.7252,3.7256,0,0,0,0,0,0,0,0,3.673,3.6749,3.6915,3.6919,3.6924,3.7035,3.7007,3.7151,3.7063,3.701,3.7056,3.7052,3.7155,3.7168,3.7203,3.7344,3.7351,3.7253,3.7258,3.7262,3.7265,0,0,0,0,0,0,0,3.672,3.6742,3.6958,3.6918,3.6923,3.6923,3.694,3.7034,3.7096,3.7014,3.7015,3.7034,3.7157,3.7195,3.7207,3.7353,3.7253,3.7261,3.7266,3.727,3.7591,3.7594,0,0,0,0,0,0,3.6706,3.6734,3.6953,3.6963,3.6818,3.6931,3.6949,3.7002,3.7095,3.7107,3.7036,3.7033,3.7181,3.7197,3.7213,3.7348,3.7262,3.727,3.7276,3.7588,3.7592,3.7595,0,0,0,0,0,0,3.6699,3.6725,3.6947,3.6849,3.6877,3.6939,3.6998,3.7006,3.7045,3.7112,3.7122,3.7064,3.7179,3.72,3.7306,3.7354,3.7274,3.7283,3.7584,3.7589,3.7593,3.7621,0,0,0,0,0,0,3.6691,3.6723,3.6767,3.685,3.6882,3.7039,3.7001,3.7012,3.706,3.7059,3.7141,3.7151,3.7179,3.7292,3.7315,3.7365,3.729,3.758,3.7586,3.7592,3.7616,3.7626,3.7635,0,0,0,0,0,3.668,3.6768,3.6769,3.6796,3.6939,3.7042,3.706,3.7091,3.7064,3.7108,3.7151,3.7149,3.7345,3.7303,3.7328,3.7382,3.7577,3.7585,3.7592,3.7612,3.7624,3.7635,0,0,0,0,0,0,3.6689,3.678,3.6782,3.69,3.6963,3.7042,3.7099,3.7103,3.7174,3.7169,3.7203,3.7222,3.7326,3.7365,3.7316,3.7494,3.7458,3.747,3.7465,3.7477,3.7486,3.7474,3.7297,0,0,0,0,0,3.6705,3.6782,3.6856,3.6953,3.6985,3.7036,3.7082,3.7101,3.7167,3.7193,3.7244,3.7307,3.7383,3.7432,3.7506,3.7622,3.7639,3.7671,3.768,3.7688,3.7698,3.776,3.7775,3.7619,3.7619,3.7619,0,0,3.6738,3.6797,3.6843,3.6956,3.7008,3.7085,3.7059,3.7142,3.72,3.7206,3.7309,3.7348,3.7421,3.7531,3.7583,3.7567,3.7745,3.7697,3.7702,3.7709,3.7769,3.7784,3.7797,3.7624,3.7623,3.7622,0,0,3.6838,3.6891,3.6977,3.7029,3.7107,3.714,3.7161,3.724,3.7266,3.737,3.7376,3.7444,3.7574,3.7626,3.7669,3.7787,3.7787,3.781,3.7859,3.7919,3.7931,3.7942,3.7983,3.7998,3.782,3.782,3.782,0,3.6869,3.6987,3.702,3.7104,3.7152,3.7162,3.7248,3.7297,3.7394,3.7427,3.7408,3.7571,3.7621,3.7743,3.7772,3.7807,3.783,3.78,3.7927,3.7939,3.7949,3.7989,3.8004,3.7822,3.7822,3.7822,3.7822,0,3.7021,3.7103,3.7162,3.7257,3.7313,3.7397,3.7441,3.7493,3.7506,3.7541,3.7646,3.7706,3.7791,3.7822,3.7835,3.7946,3.7933,3.792,3.7885,3.7966,3.8003,3.8019,3.7825,3.7825,3.7824,3.7823,0,0,3.713,3.7242,3.7263,3.7306,3.7393,3.7456,3.754,3.7625,3.7668,3.7735,3.7805,3.7914,3.7903,3.7952,3.7971,3.8024,3.8112,3.8005,3.8007,3.8021,3.8236,3.8244,3.8261,3.8113,3.8116,3.8118,3.8229,0,3.7239,3.739,3.7421,3.7551,3.7626,3.7636,3.7709,3.7769,3.7804,3.7872,3.7909,3.7986,3.7966,3.7995,3.8049,3.809,3.8155,3.8083,3.8177,3.818,3.8157,3.8281,3.829,3.8392,3.8244,3.8247,3.8248,0,3.7385,3.7456,3.7594,3.767,3.7702,3.7768,3.7847,3.7912,3.798,3.8001,3.8055,3.8069,3.8155,3.8116,3.8233,3.8183,3.8223,3.8249,3.8254,3.8263,3.8218,3.8292,3.8425,3.844,3.8272,3.827,3.8268,0,3.745,3.758,3.7679,3.7715,3.7806,3.7851,3.7891,3.7956,3.8005,3.8074,3.8105,3.8183,3.8225,3.8284,3.8317,3.8286,3.8431,3.8395,3.845,3.8449,3.8479,3.8477,3.862,3.8507,3.8507,3.8507,3.8507,0,3.7566,3.765,3.7709,3.7769,3.7862,3.7897,3.7988,3.8027,3.8085,3.8152,3.8165,3.8228,3.8268,3.8336,3.8363,3.8455,3.8474,3.8493,3.8498,3.8491,3.8488,3.8517,3.851,3.8511,3.851,3.8509,3.8509,0,3.7654,3.7697,3.7805,3.7882,3.7904,3.7969,3.8034,3.8093,3.8128,3.8212,3.8234,3.8288,3.8369,3.8408,3.8508,3.8525,3.863,3.8631,3.8607,3.8609,3.8661,3.8655,3.8826,3.8849,3.8723,3.8724,3.8725,0,3.7725,3.7789,3.7874,3.792,3.7961,3.8036,3.8086,3.8122,3.8173,3.8254,3.8302,3.8384,3.8451,3.8578,3.8625,3.8701,3.8704,3.8759,3.8715,3.8705,3.8703,3.8698,3.8704,3.8766,3.8767,3.8768,3.8769,0,3.7846,3.7864,3.7936,3.8015,3.8074,3.8137,3.82,3.8237,3.8283,3.8339,3.8422,3.8474,3.8576,3.8655,3.8735,3.8774,3.8779,3.8783,3.8799,3.8791,3.8774,3.8783,3.8627,3.8778,3.8777,3.8777,3.8776,3.8776,3.7926,3.7984,3.8052,3.8131,3.8182,3.824,3.8298,3.8341,3.8411,3.8498,3.8514,3.8602,3.8667,3.8774,3.8815,3.8883,3.8871,3.8895,3.8901,3.8906,3.8908,3.8764,3.8898,3.8898,3.8897,3.8897,3.8897,0,3.8047,3.8091,3.8164,3.8251,3.8313,3.8314,3.8383,3.8434,3.8511,3.8572,3.8638,3.8732,3.8809,3.8863,3.8941,3.8985,3.8989,3.9004,3.9,3.9009,3.8915,3.8892,3.8999,3.8999,3.8999,3.8999,3.8999,3.8999,3.8117,3.8213,3.8239,3.836,3.8404,3.8491,3.853,3.8583,3.8631,3.8737,3.8802,3.8836,3.8894,3.8976,3.9046,3.906,3.9087,3.9103,3.9116,3.9027,3.9016,3.9005,3.8984,3.9109,3.9109,3.9204,3.9205,3.9205]}]]